Flag for India Weather past 2 weeks in Hoshiarpur, Punjab, India

Now
81 °F

Fog.


Feels Like: 87 °F
Forecast: 74 / 98 °F
Wind: No wind

Location: Amritsar Airport

Current Time: Aug 31, 2014 at 12:55:30 AM

Latest Report: Aug 31, 2014 at 12:00 AM


Visibility: 2 mi

Pressure: 29.62 "Hg

Humidity: 89%

Dew point: 77 °F

Location of HoshiarpurLocation

Historic Weather in Hoshiarpur — Graph

°F

Hoshiarpur temperature yesterday

Maximum temperature yesterday: 93 °F (at 12:00 PM)
Minimum temperature yesterday: 79 °F (at 2:30 AM)
Average temperature yesterday: 86 °F

Past Weeks' High & Low Weather Summary

 TemperatureHumidityPressure
High99 °F (Aug 25, 2:00 PM)100% (Aug 16, 9:30 AM)29.80 "Hg (Aug 16, 9:30 AM)
Low73 °F (Aug 16, 9:30 AM)34% (Aug 26, 2:30 PM)29.53 "Hg (Aug 15, 10:30 PM)
Average85 °F75%29.66 "Hg
* Reported Aug 15 10:30 PM — Aug 30 10:30 PM, Hoshiarpur, Weather by CustomWeather, © 2014

Note: Actual official high and low records may vary slightly from our data, if they occured in-between our weather recording intervals... More about our weather records

Advertising

Hoshiarpur weather history for previous 24 hours

 ConditionsComfort  
Time TempWeatherWind HumidityBarometerVisibility
10:30 PM
Aug 30
82 °FPassing clouds.No wind79%29.62 "Hg2 mi
10:00 PM84 °FPassing clouds.No wind74%29.62 "Hg2 mi
9:30 PM84 °FPassing clouds.No wind74%29.62 "Hg2 mi
9:00 PM84 °FPassing clouds.No wind74%29.62 "Hg2 mi
8:30 PM84 °FPassing clouds.No wind79%29.62 "Hg2 mi
8:00 PM86 °FPassing clouds.No wind70%29.62 "Hg2 mi
7:30 PM86 °FPassing clouds.No wind75%29.59 "Hg2 mi
7:00 PM88 °FScattered clouds.No wind59%29.59 "Hg3 mi
6:30 PM90 °FScattered clouds.1 mph55%29.59 "Hg3 mi
5:30 PM91 °FScattered clouds.1 mph52%29.59 "Hg3 mi
5:00 PM91 °FScattered clouds.5 mph52%29.59 "Hg3 mi
4:30 PM93 °FScattered clouds.3 mph49%29.59 "Hg3 mi
4:00 PM93 °FScattered clouds.5 mph49%29.59 "Hg3 mi
3:30 PM93 °FScattered clouds.5 mph49%29.62 "Hg3 mi
3:00 PM93 °FScattered clouds.7 mph49%29.62 "Hg3 mi
2:30 PM93 °FScattered clouds.7 mph49%29.65 "Hg3 mi
2:00 PM93 °FScattered clouds.8 mph49%29.68 "Hg3 mi
1:30 PM93 °FScattered clouds.8 mph49%29.68 "Hg3 mi
1:00 PM91 °FScattered clouds.8 mph59%29.68 "Hg3 mi
12:30 PM91 °FFog.7 mph56%29.71 "Hg3 mi
12:00 PM93 °FHaze.6 mph49%29.71 "Hg3 mi
11:00 AM91 °FScattered clouds.5 mph52%29.74 "Hg2 mi
10:30 AM90 °FScattered clouds.6 mph52%29.74 "Hg3 mi
10:00 AM90 °FScattered clouds.3 mph55%29.74 "Hg2 mi
9:30 AM88 °FScattered clouds.3 mph62%29.74 "Hg2 mi
9:00 AM88 °FScattered clouds.2 mph59%29.74 "Hg2 mi
8:30 AM86 °FScattered clouds.No wind75%29.74 "Hg2 mi
8:00 AM82 °FFog.No wind84%29.74 "Hg2 mi
7:30 AM81 °FFog.No wind89%29.74 "Hg2 mi
7:00 AM79 °FFog.No wind94%29.71 "Hg2 mi
6:30 AM79 °FFog.No wind94%29.71 "Hg2 mi
6:00 AM79 °FFog.No wind94%29.71 "Hg2 mi
5:30 AM79 °FFog.No wind94%29.71 "Hg2 mi
5:00 AM79 °FFog.No wind94%29.68 "Hg2 mi
4:00 AM79 °FFog.No wind89%29.68 "Hg2 mi
3:30 AM79 °FFog.No wind89%29.71 "Hg2 mi
3:00 AM79 °FFog.No wind89%29.71 "Hg2 mi
2:30 AM79 °FFog.No wind89%29.68 "Hg2 mi
12:30 AM81 °FFog.No wind84%29.68 "Hg2 mi
12:00 AM81 °FFog.No wind89%29.68 "Hg2 mi
Weather by CustomWeather, © 2014

See weather overviewHow to use our weather pages